METEOR 2-5 DEB

Satellite information

Favourite Embed

Satellite Type and Status

DEBRISIN ORBIT

Key statistics

Satellite METEOR 2-5 DEB at a glance.

Uptime

16789

Days in orbit

Revolutions

≈ 14.4

Per day

Orbit

LEO

Low Earth Orbit

Inclination

81.2

Latest

Satellite identification and parameters

Extended collection of information and parameters for METEOR 2-5 DEB.

Object identification

Identified? True

Debris? True

Object name: METEOR 2-5 DEB

International designator: 1979-095CR

Object number (NORAD): 45509

Object ID (CCSDS): 45509

Country: COMMONWEALTH OF INDEPENDENT STATES (CIS)

Current information (Y/N): Y

RCS size: SMALL

Orbital parameters

Period: 99.981 minutes

Inclination: 81.1923 deg

SMA: 7135.712 km

Apoapsis: 762.454 km

Periapsis: 752.7 km

RAAN: 8.1838 deg

Eccentricy: 0.00068344

Argument of periapsis: 170.9601 deg

Mean anomaly: 207.8473 deg

Mean motion: 14.40279619 rev/day

Mean motion (dot): 0.00009099 rev/day2

B* drag term: 0.0028668134 1/REarth

Two-line elements (TLE)

Creation date: Oct. 18, 2025, 2:17 a.m.

Reference frame: TEME

Reference center: EARTH

Epoch: Oct. 17, 2025, 11:55 a.m. UTC

TLE line 0: 0 METEOR 2-5 DEB

TLE line 1: 1 45509U 79095CR 25290.49702061 .00009099 00000-0 28668-2 0 9999

TLE line 2: 2 45509 81.1923 8.1838 0006834 170.9601 207.8473 14.40279619610340

Live tracking on map

Real-time ground track for satellite METEOR 2-5 DEB.

In-orbit conjunctions

A list of the most updated potential collisions computed for object METEOR 2-5 DEB.

Target Orbit TCA Probability of collision Miss distance Type
JAWSAT SSO 2025-09-13 22:43:41 0.0001942676 228.0 (m) PAYLOAD
FENGYUN 1C DEB SSO 2025-07-26 12:31:21 0.0001373406 95.0 (m) DEBRIS
IRS 1D SSO 2025-07-14 03:24:25 0.0002043988 227.0 (m) PAYLOAD
COSMOS 923 LEO 2024-08-29 03:59:45 0.0002951176 158.0 (m) PAYLOAD
FENGYUN 1C DEB SSO 2024-07-12 09:29:06 0.0001024538 178.0 (m) DEBRIS

Associated space launch

Second generation soviet meteorological satellite

METEOR 2-5 DEB was lifted into orbit during the mission ‘Vostok 8A92M | Meteor-2 5’, on board a Vostok 8A92M space rocket.

The launch took place on Oct. 31, 1979, 9:25 a.m. from 43/4 (43R).

For more information about the launch, click the button.

Launch to space Vostok 8A92M | Meteor-2 5
Vostok 8A92M | Meteor-2 5

Agency: N/A

Status: Launch Successful

Launch date: Oct. 31, 1979, 9:25 a.m. UTC

Rocket: Vostok 8A92M

Launch pad: 43/4 (43R)

Location: Plesetsk Cosmodrome, Russian Federation

...

Latest news about this satellite

There are no fresh news available about this satellite. Check back as we update our databases every day.


Newsletter sign-up

Weekly statistics, charts and insights to help you stay on top of the space industry.